Regional Weather Roundup
Issued by NWS Wakefield, VA

Home | Current Version | Previous Version | Graphics & Text | Print | Product List | Glossary On
Versions: 1 2 3 4 5 6 7 8 9 10 11 12 13 14 15 16 17 18 19 20 21 22 23 24 25 26 27 28 29 30 31 32 33 34 35 36 37 38 39 40 41 42 43 44 45 46 47 48 49 50
000
ASUS41 KAKQ 300510
RWRAKQ

REGIONAL WEATHER ROUNDUP
NATIONAL WEATHER SERVICE WAKEFIELD VA
100 AM EDT WED JUL 30 2014

Note: "fair" indicates few or no clouds below 12,000 feet with no
significant weather and/or obstructions to visibility. * = Denotes
station may not report precipitation (e.g., rain,snow,etc.),
thunder or fog.

VAZ042-051-052>054-056-300600-
NORTHERN VIRGINIA

CITY           SKY/WX    TMP DP  RH WIND       PRES   REMARKS
WASH NATIONAL  PTCLDY    65  48  54 CALM      30.04R
DULLES         CLEAR     53  48  83 CALM      30.04S
FORT BELVOIR   NOT AVBL
QUANTICO       CLEAR     60  55  83 NW10      30.05R
FREDERICKSBRG* CLEAR     61  55  80 CALM      30.04R
STAFFORD*      CLEAR     53  53 100 CALM      30.08S
WARRENTON      CLEAR     53  53 100 CALM      30.04S
CULPEPER*      PTCLDY   N/A N/A N/A CALM      30.06R
MANASSAS*      CLEAR     55  55 100 CALM      30.05S
LEESBURG*      CLEAR     55  54  94 CALM      30.05S
WINCHESTER     CLEAR     54  48  82 CALM      30.05S
$$

VAZ048-049-060>072-079>083-300600-
CENTRAL AND SOUTH CENTRAL VIRGINIA...AND NORTH CENTRAL NORTH CAROLINA

CITY           SKY/WX    TMP DP  RH WIND       PRES   REMARKS
RICHMOND       CLOUDY    68  53  58 CALM      30.04R
CHESTERFIELD*  MOCLDY    66  46  48 CALM      30.05S
HANOVER        MOCLDY    62  54  74 CALM      30.05S
TAPPAHANNOCK*  MOCLDY    62  54  74 CALM      30.04S
CHARLOTTSVILLE CLOUDY    62  53  72 CALM      30.06R
ORANGE*        CLOUDY    59  52  77 CALM      30.07R
LOUISA*        PTCLDY    55  52  88 N3        30.04S
FARMVILLE*     CLOUDY    63  61  94 CALM      30.04R
SOUTH HILL*    LGT RAIN  68  63  83 N8        30.08R
ROANOKE RAPIDS NOT AVBL
RALEIGH        PTCLDY    68  60  75 SE3       30.00S
$$

VAZ088>098-300600-
SOUTHEAST VIRGINIA

CITY           SKY/WX    TMP DP  RH WIND       PRES   REMARKS
NORFOLK        CLEAR     70  58  65 CALM      30.01S
VIRGINIA BEACH PTCLDY    65  58  78 W3        30.00S
NORFOLK NAVAL  PTCLDY    70  59  68 CALM      30.02S
WEST POINT*    MOCLDY    68  56  64 CALM      30.04S
NEWPORT NEWS   MOCLDY    71  57  61 N3        30.02S
LANGLEY AFB    MOCLDY    71  57  61 NW5       30.01S
FORT EUSTIS    MOCLDY    70  54  56 N5        30.01R
WILLIAMSBURG*  MOCLDY    70  59  68 N3        30.03S
FRANKLIN*      PTCLDY    63  61  94 CALM      30.02S
WAKEFIELD      MOCLDY    66  59  78 CALM      30.02S
$$

VAZ020-022-025-037-045-300600-
WESTERN AND SOUTHWEST VIRGINIA

CITY           SKY/WX    TMP DP  RH WIND       PRES   REMARKS
STAUNTON*      PTCLDY    56  51  83 CALM      30.10R
HOT SPRINGS VA CLEAR     49  45  85 NW5       30.15S
LYNCHBURG      MOCLDY    64  56  75 CALM      30.08R
DANVILLE       CLOUDY    69  59  70 CALM      30.04R
MARTINSVILLE   CLEAR     62  56  80 CALM      30.08R
ROANOKE        MOCLDY    62  52  69 NW5       30.09S
BLACKSBURG     CLEAR     54  54 100 CALM        N/A
DUBLIN*        CLEAR     56  51  82 CALM      30.12S
MARION*        CLEAR     52  49  92 CALM      30.15S
HILLSVILLE*    CLEAR     57  48  72 NW7       30.12S
RICHLANDS*     CLEAR     58  51  76 CALM      30.13S
WISE*          CLEAR     52  52 100 CALM      30.15S
ABINGDON*      CLEAR     55  53  91 CALM      30.11F
$$

MDZ021>025-VAZ099-100-300600-
SOUTHERN MARYLAND AND THE DELMARVA PENINSULA

CITY           SKY/WX    TMP DP  RH WIND       PRES   REMARKS
PATUXENT RIVER MOCLDY    59  51  75 W5        30.01F
BAY BRIDGE APT   N/A     66  54  63 W8        30.01S
LEONARDTOWN    CLEAR     55  50  82 CALM      30.04S
DOVER          CLEAR     62  59  87 W3        29.97F
GEORGETOWN     CLEAR     60  55  83 S8        30.01S
EASTON         CLEAR     64  58  83 CALM      30.04S
CAMBRIDGE      CLEAR     59  54  82 CALM      30.00F
SALISBURY      NOT AVBL
OCEAN CITY     CLEAR     54  52  93 CALM      30.00S
WALLOPS ISLAND CLEAR     61  56  83 N3        30.01S
ACCOMACK*        N/A     61  57  88 CALM      30.01S
$$

NCZ012>017-030>032-300600-
EASTERN NORTH CAROLINA

CITY           SKY/WX    TMP DP  RH WIND       PRES   REMARKS
ELIZABETH CITY CLEAR     69  62  78 E5        30.00F
AHOSKIE*       PTCLDY    62  59  91 CALM      30.01S
EDENTON*       CLEAR     67  63  88 NE3       30.00F
CURRITUCK*     CLEAR     66  57  73 CALM      30.01F
KILL DEVIL HLS CLEAR     73  60  64 E3        29.99S
MANTEO         NOT AVBL
CAPE HATTERAS  CLOUDY    75  64  68 E6        29.98F
GOLDSBORO      CLEAR     65  65  97 SE2       29.98S
WASHINGTON     PTCLDY    68  64  86 CALM      30.01S
GREENVILLE     CLEAR     68  64  88 CALM      30.01F
NEW BERN       MOCLDY    74  65  73 E5        30.00F
WILMINGTON     CLOUDY    70  69  97 CALM      29.97F
$$

VAZ048-300600-
ELSEWHERE

CITY           SKY/WX    TMP DP  RH WIND       PRES   REMARKS
HARRISBURG PA  PTCLDY    60  53  77 CALM      30.01S
BALTIMORE      PTCLDY    60  51  72 CALM      30.02R
ANNAPOLIS      MOCLDY    64  52  64 W6        30.01S
ANDREWS AFB    CLEAR     57  51  79 CALM      30.03S
WILMINGTON DE  MOCLDY    62  58  86 NW5       30.00S
PHILADELPHIA   CLOUDY    68  53  58 NW6       30.00S
WILDWOOD NJ*   MOCLDY    66  55  68 N5        29.99F
ATLANTIC CITY  CLOUDY    67  59  75 NW3       29.98S
HENDERSON NC   MOCLDY    67  58  73 N5        30.02R
GREENSBORO     PTCLDY    67  60  78 N5        30.03R
ROCKY MOUNT    CLEAR     66  60  81 CALM      30.00S
FAYETTEVILLE   CLEAR     69  61  75 CALM      29.98F
CHARLOTTE      PTCLDY    66  55  67 N9        30.02S
$$

VAZ100-300600-
MARINE

STATION/POSITION TIME  TEMP    WIND        PRES    WAVE   SWELL
                       AIR SEA DIR/SP/G            HT/PER HT/PER
                 (UTC) (F)     (DEG/KT/KT) (MB)    (FT/S) (FT/S)
44066 TX TWR #4  0500   71 74  240/  8/ 10 1015.3R   3/ 8   3/ 8
CAPE MAY NJ      0500   69 77  360/  2/  3 1014.8F
LEWES DE         0500   63 71  250/  5/  6 1015.3S
15NM E FENWICK I 0500   71 75              1015.5S   2/ 8
OCEAN-CITY-INLET 0500   66 71  300/  3/  4 1015.3R
WACHAPREAGUE VA  0500   64 80  310/  1/  2 1016.1S
THOMAS POINT MD  0500   67 77  310/ 12/ 13 1016.7S
GOOSES REEF MD   0500   70     330/ 10/ 14 1016.7F
COVE POINT MD    0500   67     320/  8/  9 1016.2S
SOLOMONS ISLAND  0500      80                N/A
BISHOPS HEAD MD  0500   68 75  340/  4/  5 1015.7R
PINEY POINT MD   0500          360/  8/  9   N/A
POTOMAC MD       0500   70     350/ 10/ 12 1015.6S
CAMBRIDGE MD     0500   66 79  220/  2/  3 1015.8S
LEWISETTA VA     0500   70 77  350/  5/  8 1016.2F
RAPPAHANNOCK LGT 0500          340/  9/ 11 1016.7F
STINGRAY PT      0500   73     350/  6/ 10 1017.0S
YORK RVR RNG VA  0500   73      10/ 14/ 16 1015.6F
YORKTOWN VA      0500   71 79  360/  9/ 10 1016.2S
JAMESTOWN VA     0500   70      30/  4/  8   N/A
DOMINION TERM VA 0500   75      60/  4/  6 1016.2F
KIPTOPEKE VA     0500      81   60/  3/  4   N/A
CHES BAY BRIDGE  0500   74 76   40/  8/ 10 1015.5R
CAPE HENRY VA    0500   74      40/  8/ 11 1014.8S
WILLOUBY STN VA  0500           50/  7/  8 1015.4S
S CRANEY ISL VA  0500           60/  5/  5 1016.1F
CAPE HENRY BUOY  0400      78                N/A     2/ 8
1ST LANDING BUOY 0500   74      50/  8/ 10 1015.7R
CAPE CHARLES BUO 0500      76                N/A     2/ 8
OFFSHORE WE BUOY 0400      78                N/A     2/ 8
64NM E OF VA BCH 0500   75 78   40/  6/  8 1015.2F   2/ 8   2/ 8
DUCK PIER NC     0500   74 74   50/  8/  9 1014.9F
44056 DUCK FRF   0400                        N/A     2/17
OREGON INLET NC  0500   74 80   40/  7/ 10 1015.3F
HATTERAS NC      0500   76 81   50/  8/ 11 1015.5S
DIAMOND SHLS NC  0500          VRB 14/ 16  1014.4F   3/ 8   2/ 8
CAPE LOOKOUT NC  0400   77      60/ 13/ 14 1015.1F
$$



USA.gov is the U.S. government's official web portal to all federal, state and local government web resources and services.